Regional Weather Roundup
Issued by NWS

Home | Current Version | Previous Version | Text Only | Print | Product List | Glossary Off
Versions: 1 2 3 4 5 6 7 8 9 10 11 12 13 14 15 16 17 18 19 20 21 22 23 24 25 26 27 28 29 30 31 32 33 34 35 36 37 38 39 40 41 42 43 44 45 46 47 48 49 50

182
ASUS43 KDMX 291308
RWRIA

WEATHER ROUNDUP FOR IOWA
NATIONAL WEATHER SERVICE DES MOINES IA
800 AM CDT FRI JUL 29 2016

NOTE: "FAIR" INDICATES FEW OR NO CLOUDS BELOW 12,000 FEET WITH NO
SIGNIFICANT WEATHER AND/OR OBSTRUCTIONS TO VISIBILITY.

* - THESE STATIONS ARE NOT NWS STATIONS...THUS NOT UNDER NWS
QUALITY CONTROL.  THEY ALSO DO NOT REPORT WEATHER SUCH
AS PRECIPITATION OR FOG.

IAZ001>003-012>014-020>022-031>034-043>046-291400-
   NORTHWEST IOWA

CITY           SKY/WX    TMP DP  RH WIND       PRES   REMARKS
CARROLL *      SUNNY     64  63  94 N9        30.04R
CHEROKEE *     PTSUNNY   61  61  98 N5        30.07R
DENISON *      SUNNY     63  63 100 NE6       30.04R
LE MARS *      MOSUNNY   63  59  88 CALM      30.09R
SHELDON *      CLOUDY    61  59  94 N3        30.07R
SIOUX CITY     PTSUNNY   67  61  81 N5        30.07R
SPENCER        CLOUDY    63  59  87 N6        30.07R
STORM LAKE *   MOSUNNY   64  61  88 N8        30.07R
$$

IAZ055>058-069>071-079>083-090>094-291400-
   SOUTHWEST IOWA

CITY           SKY/WX    TMP DP  RH WIND       PRES   REMARKS
ATLANTIC *     SUNNY     66  63  88 N6        30.04R
CLARINDA *       N/A     68  64  88 MISG      30.09R
COUNCIL BLFS * CLOUDY    66  63  88 E3        30.06R
CRESTON *      MOSUNNY   64  63  94 N6        30.05R
HARLAN  *      SUNNY     66  63  88 N6        30.08R
LAMONI         CLOUDY    65  64  97 NW6       30.03R
RED OAK *      PTSUNNY   66  63  88 CALM      30.06R
SHENANDOAH *   CLOUDY    68  68 100 CALM      30.07R
$$

IAZ047>049-059>061-072>074-084-291400-
   CENTRAL IOWA

CITY           SKY/WX    TMP DP  RH WIND       PRES   REMARKS
AMES           CLOUDY    66  64  93 NW7       30.01R
ANKENY *         N/A    N/A N/A N/A MISG        N/A
BOONE *        CLOUDY    64  63  94 NW8       30.01R
CHARITON *       N/A    N/A N/A N/A MISG        N/A
DES MOINES     CLOUDY    67  61  81 N8        30.00R
GRINNELL*      CLOUDY    65  63  92 NW7       29.99R
KNOXVILLE *    CLOUDY    64  63  94 W7        29.99R
MARSHALLTOWN   CLOUDY    66  64  93 N10       29.98R
NEWTON *       CLOUDY    64  64 100 W6        29.98R
PELLA *        CLOUDY    64  63  96 NW7       30.00R
PERRY *          N/A     65  64  96 NW8       30.02R
$$

IAZ004>006-015-016-023>025-035-036-291400-
   NORTH CENTRAL IOWA

CITY           SKY/WX    TMP DP  RH WIND       PRES   REMARKS
ALGONA *       CLOUDY    64  63  94 NE8       30.04S
ESTHERVILLE    CLOUDY    63  61  93 N7        30.06R
FORT DODGE *   CLOUDY    63  61  94 N7        30.04R
MASON CITY     CLOUDY    63  61  93 NE12      30.04R
FOREST CITY *  CLOUDY    63  61  94 CALM      30.04R
IOWA FALLS *   CLOUDY    65  62  90 N10       30.01R
$$

IAZ007>011-017>019-026>030-037>042-050>054-066-291400-
   NORTHEAST IOWA

CITY           SKY/WX    TMP DP  RH WIND       PRES   REMARKS
CEDAR RAPIDS   CLOUDY    67  67 100 NW8       29.95R FOG
CHARLES CITY * CLOUDY    63  63 100 NE7       30.01R FOG
CLINTON *      CLOUDY    68  67  96 NE7       29.95R FOG
DECORAH *      CLOUDY    63  63 100 NE5G12    30.00R
DUBUQUE        CLOUDY    66  63  90 NE9       29.97R
MONTICELLO *   CLOUDY    68  64  88 E8        29.96R
OELWEIN *      CLOUDY    66  63  88 NE10      29.99R
WATERLOO       CLOUDY    66  63  90 NE8       29.97R
$$

IAZ064-065-067-068-078-291400-
   EAST CENTRAL IOWA

CITY           SKY/WX    TMP DP  RH WIND       PRES   REMARKS
DAVENPORT      CLOUDY    69  68  96 NE7       29.94R FOG
IOWA CITY      CLOUDY    70  66  87 N5        29.96R
MT. PLEASANT * CLOUDY    69  68  98 NW8       29.97R
MUSCATINE *    CLOUDY    70  66  88 W5        29.95R
QUAD CITIES    CLOUDY    73  68  84 W3        29.93R
$$

IAZ062-063-075>077-085>089-095>099-291400-
   SOUTHEAST IOWA

CITY           SKY/WX    TMP DP  RH WIND       PRES   REMARKS
BURLINGTON     CLOUDY    65  65 100 NW5       29.95R
FAIRFIELD *    CLOUDY    66  64  94 NW5       29.96R
KEOKUK *       CLOUDY    66  66 100 NW6       29.96R
CENTERVILLE *  CLOUDY    64  64 100 CALM      30.02R
OTTUMWA        CLOUDY    65  63  93 W6        29.98R
WASHINGTON *   CLOUDY    68  66  94 W5        29.97R
$$

ABBREVIATIONS USED IN REMARKS
   TC - TEMPERATURES IN CELSIUS
  WCI - WIND CHILL INDEX
   HX - HEAT INDEX
  VSB - VISIBILITY
$$





USA.gov is the U.S. government's official web portal to all federal, state and local government web resources and services.